| time (UTC) | temp C | wind direction | speed KPH | gust KPH | rain 1hr cm | rain 24hr cm | rain mn cm | humidity % | barometer mb |
| 20260507124548 | 5 | 360 | 1.6 | 6.4 | 0.00 | 0.05 | 0.00 | 76 | 893.8 |
| 20260507123030 | 4 | 360 | 1.6 | 6.4 | 0.00 | 0.05 | 0.00 | 79 | 893.7 |
| 20260507121526 | 3 | 360 | 1.6 | 4.8 | 0.00 | 0.05 | 0.00 | 81 | 893.7 |
| 20260507120024 | 3 | 360 | 1.6 | 4.8 | 0.00 | 0.10 | 0.00 | 82 | 893.7 |
| 20260507114525 | 3 | 360 | 0.0 | 4.8 | 0.00 | 0.10 | 0.00 | 84 | 894.0 |
| 20260507113023 | 3 | 360 | 0.0 | 4.8 | 0.00 | 0.10 | 0.00 | 84 | 894.2 |
| 20260507111519 | 3 | 360 | 1.6 | 4.8 | 0.00 | 0.10 | 0.00 | 84 | 894.0 |
| 20260507110028 | 3 | 360 | 1.6 | 4.8 | 0.00 | 0.13 | 0.00 | 84 | 894.3 |
| 20260507104517 | 3 | 360 | 1.6 | 4.8 | 0.00 | 0.13 | 0.00 | 84 | 894.3 |
| 20260507103017 | 3 | 360 | 1.6 | 4.8 | 0.00 | 0.13 | 0.00 | 84 | 894.4 |
| 20260507101513 | 3 | 360 | 0.0 | 3.2 | 0.00 | 0.13 | 0.00 | 85 | 894.7 |
| 20260507100018 | 3 | 360 | 1.6 | 4.8 | 0.00 | 0.18 | 0.00 | 86 | 894.9 |
| 20260507094510 | 3 | 360 | 1.6 | 4.8 | 0.00 | 0.18 | 0.00 | 86 | 895.0 |
| 20260507093009 | 3 | 360 | 1.6 | 4.8 | 0.00 | 0.18 | 0.00 | 86 | 895.3 |
| 20260507091508 | 3 | 360 | 0.0 | 3.2 | 0.00 | 0.18 | 0.00 | 86 | 895.2 |
| 20260507090008 | 3 | 360 | 0.0 | 4.8 | 0.00 | 0.20 | 0.00 | 86 | 895.5 |
| 20260507084508 | 3 | 360 | 1.6 | 3.2 | 0.00 | 0.20 | 0.00 | 86 | 895.6 |
| 20260507083003 | 2 | 360 | 1.6 | 4.8 | 0.00 | 0.20 | 0.00 | 86 | 895.7 |
| 20260507081505 | 3 | 360 | 1.6 | 4.8 | 0.00 | 0.20 | 0.00 | 86 | 895.9 |
| 20260507080103 | 3 | 360 | 1.6 | 4.8 | 0.00 | 0.20 | 0.00 | 86 | 896.2 |
| 20260507074610 | 2 | 360 | 1.6 | 4.8 | 0.00 | 0.23 | 0.00 | 87 | 896.5 |
| 20260507073055 | 2 | 360 | 1.6 | 4.8 | 0.00 | 0.23 | 0.00 | 87 | 896.7 |
| 20260507071554 | 2 | 360 | 1.6 | 4.8 | 0.00 | 0.23 | 0.00 | 87 | 896.7 |
| 20260507070106 | 2 | 360 | 1.6 | 4.8 | 0.00 | 0.25 | 0.00 | 88 | 897.0 |
| 20260507064547 | 2 | 360 | 1.6 | 3.2 | 0.00 | 0.25 | 0.00 | 88 | 897.0 |
| 20260507063055 | 2 | 360 | 0.0 | 3.2 | 0.00 | 0.25 | 0.00 | 88 | 897.3 |
| 20260507061547 | 2 | 360 | 1.6 | 4.8 | 0.00 | 0.25 | 0.00 | 88 | 897.6 |
| 20260507060045 | 2 | 360 | 0.0 | 1.6 | 0.00 | 0.28 | 0.00 | 88 | 897.5 |
| 20260507054543 | 2 | 360 | 0.0 | 0.0 | 0.00 | 0.28 | 0.00 | 88 | 897.6 |
| 20260507053039 | 2 | 360 | 0.0 | 3.2 | 0.00 | 0.28 | 0.00 | 88 | 897.9 |
| 20260507051535 | 2 | 360 | 1.6 | 3.2 | 0.00 | 0.28 | 0.00 | 88 | 898.0 |
| 20260507050036 | 2 | 360 | 1.6 | 3.2 | 0.00 | 0.36 | 0.28 | 88 | 898.0 |
| 20260507044531 | 2 | 360 | 1.6 | 3.2 | 0.00 | 0.36 | 0.28 | 87 | 898.1 |
| 20260507043031 | 2 | 360 | 1.6 | 3.2 | 0.00 | 0.36 | 0.28 | 87 | 898.4 |
| 20260507041531 | 2 | 360 | 1.6 | 3.2 | 0.00 | 0.36 | 0.28 | 87 | 898.3 |
| 20260507040031 | 3 | 360 | 1.6 | 3.2 | 0.00 | 0.41 | 0.28 | 86 | 898.4 |
| 20260507034535 | 3 | 360 | 0.0 | 0.0 | 0.00 | 0.41 | 0.28 | 86 | 898.3 |
| 20260507033028 | 3 | 360 | 1.6 | 3.2 | 0.00 | 0.41 | 0.28 | 86 | 898.4 |
| 20260507031526 | 3 | 360 | 0.0 | 0.0 | 0.00 | 0.41 | 0.28 | 86 | 898.4 |
| 20260507030026 | 4 | 360 | 0.0 | 3.2 | 0.00 | 0.51 | 0.28 | 86 | 898.4 |
| 20260507024526 | 5 | 360 | 0.0 | 3.2 | 0.00 | 0.51 | 0.28 | 86 | 898.4 |
| 20260507023025 | 5 | 360 | 0.0 | 3.2 | 0.00 | 0.51 | 0.28 | 85 | 898.4 |
| 20260507021524 | 5 | 360 | 1.6 | 3.2 | 0.00 | 0.51 | 0.28 | 84 | 898.3 |
| 20260507020031 | 6 | 360 | 0.0 | 3.2 | 0.00 | 0.76 | 0.28 | 83 | 898.3 |
| 20260507014522 | 6 | 360 | 0.0 | 3.2 | 0.00 | 0.76 | 0.28 | 81 | 898.3 |
| 20260507013038 | 7 | 360 | 0.0 | 3.2 | 0.00 | 0.76 | 0.28 | 79 | 898.3 |
| 20260507011520 | 7 | 360 | 0.0 | 3.2 | 0.00 | 0.76 | 0.28 | 79 | 898.4 |
| 20260507010020 | 8 | 360 | 1.6 | 3.2 | 0.00 | 0.81 | 0.28 | 77 | 898.3 |
| 20260507004520 | 8 | 360 | 0.0 | 3.2 | 0.00 | 0.81 | 0.28 | 77 | 898.3 |
| 20260507003017 | 7 | 360 | 0.0 | 3.2 | 0.00 | 0.81 | 0.28 | 78 | 898.4 |
| 20260507001519 | 7 | 360 | 0.0 | 3.2 | 0.00 | 0.81 | 0.28 | 80 | 898.5 |
| 20260507000018 | 7 | 360 | 0.0 | 3.2 | 0.00 | 0.81 | 0.28 | 79 | 898.6 |
| 20260506234525 | 7 | 360 | 0.0 | 3.2 | 0.00 | 0.81 | 0.28 | 77 | 898.5 |
| 20260506233016 | 7 | 360 | 0.0 | 3.2 | 0.00 | 0.81 | 0.28 | 77 | 898.6 |
| 20260506231515 | 8 | 178 | 0.0 | 0.0 | 0.00 | 0.81 | 0.28 | 72 | 898.5 |
| 20260506230014 | 8 | 182 | 0.0 | 0.0 | 0.00 | 0.81 | 0.28 | 72 | 898.4 |
| 20260506224514 | 8 | 198 | 0.0 | 3.2 | 0.00 | 0.81 | 0.28 | 72 | 898.4 |
| 20260506223013 | 7 | 196 | 0.0 | 1.6 | 0.03 | 0.81 | 0.28 | 74 | 898.5 |
| 20260506221512 | 7 | 156 | 0.0 | 1.6 | 0.03 | 0.81 | 0.28 | 77 | 898.5 |
| 20260506220021 | 7 | 184 | 0.0 | 1.6 | 0.03 | 0.81 | 0.28 | 77 | 898.6 |
| 20260506214512 | 6 | 30 | 0.0 | 0.0 | 0.03 | 0.81 | 0.28 | 77 | 898.8 |
| 20260506213011 | 6 | 69 | 0.0 | 0.0 | 0.00 | 0.79 | 0.25 | 75 | 899.0 |
| 20260506211518 | 7 | 14 | 0.0 | 1.6 | 0.00 | 0.79 | 0.25 | 73 | 899.1 |
| 20260506210017 | 8 | 98 | 0.0 | 4.8 | 0.00 | 0.79 | 0.25 | 67 | 899.2 |
| 20260506204509 | 9 | 319 | 0.0 | 0.0 | 0.00 | 0.79 | 0.25 | 66 | 899.1 |
| 20260506203009 | 9 | 223 | 0.0 | 1.6 | 0.00 | 0.79 | 0.25 | 65 | 899.2 |
| 20260506201508 | 9 | 12 | 0.0 | 1.6 | 0.00 | 0.79 | 0.25 | 63 | 899.2 |
| 20260506200010 | 9 | 360 | 0.0 | 1.6 | 0.00 | 0.79 | 0.25 | 66 | 899.3 |
| 20260506194504 | 8 | 360 | 0.0 | 3.2 | 0.00 | 0.79 | 0.25 | 65 | 899.4 |
| 20260506193002 | 8 | 360 | 0.0 | 0.0 | 0.00 | 0.79 | 0.25 | 65 | 899.4 |
| 20260506191501 | 8 | 360 | 0.0 | 0.0 | 0.00 | 0.79 | 0.25 | 67 | 899.5 |
| 20260506190100 | 8 | 360 | 0.0 | 0.0 | 0.00 | 0.79 | 0.25 | 69 | 899.6 |
| 20260506184607 | 7 | 360 | 0.0 | 0.0 | 0.00 | 0.79 | 0.25 | 74 | 899.8 |
| 20260506183054 | 7 | 360 | 0.0 | 0.0 | 0.00 | 0.79 | 0.25 | 72 | 899.9 |
| 20260506181552 | 7 | 360 | 0.0 | 0.0 | 0.00 | 0.79 | 0.25 | 74 | 900.0 |
| 20260506180048 | 7 | 360 | 0.0 | 3.2 | 0.00 | 0.79 | 0.25 | 78 | 900.1 |
| 20260506174548 | 6 | 360 | 0.0 | 0.0 | 0.00 | 0.79 | 0.25 | 77 | 900.1 |
| 20260506173046 | 6 | 360 | 0.0 | 0.0 | 0.00 | 0.79 | 0.25 | 81 | 900.3 |
| 20260506171547 | 5 | 360 | 0.0 | 0.0 | 0.00 | 0.79 | 0.25 | 83 | 900.2 |
| 20260506170037 | 5 | 360 | 0.0 | 1.6 | 0.00 | 0.81 | 0.25 | 84 | 900.3 |
| 20260506164547 | 4 | 21 | 0.0 | 1.6 | 0.00 | 0.81 | 0.25 | 85 | 900.3 |
| 20260506163033 | 4 | 22 | 0.0 | 0.0 | 0.00 | 0.81 | 0.25 | 86 | 900.2 |
| 20260506161533 | 4 | 22 | 0.0 | 1.6 | 0.00 | 0.81 | 0.25 | 87 | 900.1 |
| 20260506160029 | 3 | 24 | 0.0 | 3.2 | 0.00 | 0.81 | 0.25 | 87 | 900.0 |
| 20260506154526 | 3 | 18 | 0.0 | 1.6 | 0.00 | 0.81 | 0.25 | 88 | 899.8 |
| 20260506153023 | 3 | 13 | 0.0 | 0.0 | 0.00 | 0.81 | 0.25 | 89 | 899.6 |
| 20260506151522 | 3 | 16 | 0.0 | 1.6 | 0.00 | 0.81 | 0.25 | 90 | 899.3 |
| 20260506150020 | 3 | 238 | 0.0 | 1.6 | 0.00 | 0.81 | 0.25 | 90 | 899.5 |
| 20260506144618 | 3 | 237 | 0.0 | 0.0 | 0.00 | 0.81 | 0.25 | 91 | 899.5 |
| 20260506143021 | 2 | 223 | 0.0 | 0.0 | 0.00 | 0.81 | 0.25 | 91 | 899.4 |
| 20260506141517 | 2 | 226 | 0.0 | 1.6 | 0.00 | 0.81 | 0.25 | 92 | 899.3 |
| 20260506140016 | 2 | 211 | 0.0 | 3.2 | 0.00 | 0.81 | 0.25 | 92 | 899.3 |
| 20260506134516 | 2 | 194 | 0.0 | 3.2 | 0.03 | 0.81 | 0.25 | 92 | 899.3 |
| 20260506133015 | 2 | 200 | 0.0 | 3.2 | 0.03 | 0.81 | 0.25 | 92 | 899.2 |
| 20260506131517 | 1 | 360 | 0.0 | 0.0 | 0.03 | 0.81 | 0.25 | 92 | 899.0 |
| 20260506130014 | 1 | 175 | 0.0 | 0.0 | 0.03 | 0.81 | 0.25 | 92 | 898.8 |